| time (UTC) | temp C | wind direction | speed KPH | gust KPH | rain 1hr cm | rain 24hr cm | rain mn cm | humidity % | barometer mb |
| 20260906064022 | 18 | 0 | 0.0 | 0.0 | 0.00 | 0.00 | 0.00 | 80 | |
| 20260906063023 | 16 | 0 | 0.0 | 0.0 | 0.00 | 0.00 | 0.00 | 86 | |
| 20260906062022 | 15 | 0 | 0.0 | 0.0 | 0.00 | 0.00 | 0.00 | 90 | |
| 20260906061019 | 12 | 0 | 0.0 | 0.0 | 0.00 | 0.00 | 0.00 | 92 | |
| 20260906055023 | 12 | 0 | 0.0 | 0.0 | 0.00 | 0.00 | 0.00 | 92 | |
| 20260906054020 | 12 | 0 | 0.0 | 0.0 | 0.00 | 0.00 | 0.00 | 92 | |
| 20260906053035 | 12 | 0 | 0.0 | 0.0 | 0.00 | 0.00 | 0.00 | 92 | |
| 20260906052026 | 12 | 0 | 0.0 | 0.0 | 0.00 | 0.00 | 0.00 | 92 | |
| 20260906050027 | 12 | 0 | 0.0 | 0.0 | 0.00 | 0.00 | 0.00 | 92 | |
| 20260906045031 | 12 | 0 | 0.0 | 0.0 | 0.00 | 0.00 | 0.00 | 91 | |
| 20260906044025 | 12 | 0 | 0.0 | 0.0 | 0.00 | 0.00 | 0.00 | 91 | |
| 20260906043028 | 12 | 0 | 0.0 | 0.0 | 0.00 | 0.00 | 0.00 | 91 | |
| 20260906042026 | 12 | 0 | 0.0 | 0.0 | 0.00 | 0.00 | 0.00 | 91 | |
| 20260906041018 | 13 | 0 | 0.0 | 0.0 | 0.00 | 0.00 | 0.00 | 91 | |
| 20260906035028 | 13 | 0 | 0.0 | 0.0 | 0.00 | 0.00 | 0.00 | 91 | |
| 20260906034034 | 13 | 0 | 0.0 | 0.0 | 0.00 | 0.00 | 0.00 | 91 | |
| 20260906033027 | 13 | 0 | 0.0 | 0.0 | 0.00 | 0.00 | 0.00 | 91 | |
| 20260906031023 | 12 | 0 | 0.0 | 0.0 | 0.00 | 0.00 | 0.00 | 91 | |
| 20260906030031 | 12 | 0 | 0.0 | 0.0 | 0.00 | 0.00 | 0.00 | 91 | |
| 20260906025017 | 12 | 0 | 0.0 | 0.0 | 0.00 | 0.00 | 0.00 | 91 | |
| 20260906024017 | 12 | 0 | 0.0 | 0.0 | 0.00 | 0.00 | 0.00 | 91 | |
| 20260906023025 | 12 | 0 | 0.0 | 0.0 | 0.00 | 0.00 | 0.00 | 91 | |
| 20260906022024 | 12 | 0 | 0.0 | 0.0 | 0.00 | 0.00 | 0.00 | 91 | |
| 20260906021026 | 12 | 0 | 0.0 | 0.0 | 0.00 | 0.00 | 0.00 | 91 | |
| 20260906020038 | 12 | 0 | 0.0 | 0.0 | 0.00 | 0.00 | 0.00 | 91 | |
| 20260906015024 | 12 | 0 | 0.0 | 0.0 | 0.00 | 0.00 | 0.00 | 90 | |
| 20260906014034 | 13 | 0 | 0.0 | 0.0 | 0.00 | 0.00 | 0.00 | 90 | |
| 20260906013019 | 13 | 0 | 0.0 | 0.0 | 0.00 | 0.00 | 0.00 | 90 | |
| 20260906010037 | 13 | 0 | 0.0 | 0.0 | 0.00 | 0.00 | 0.00 | 89 | |
| 20260906005028 | 13 | 0 | 0.0 | 0.0 | 0.00 | 0.00 | 0.00 | 89 | |
| 20260906004019 | 13 | 0 | 0.0 | 0.0 | 0.00 | 0.00 | 0.00 | 89 | |
| 20260906003024 | 14 | 0 | 0.0 | 0.0 | 0.00 | 0.00 | 0.00 | 89 | |
| 20260906001027 | 15 | 0 | 0.0 | 0.0 | 0.00 | 0.00 | 0.00 | 89 | |
| 20260906000030 | 15 | 0 | 0.0 | 0.0 | 0.00 | 0.00 | 0.00 | 89 | |
| 20260905235020 | 15 | 0 | 0.0 | 0.0 | 0.00 | 0.00 | 0.41 | 89 | |
| 20260905234031 | 15 | 0 | 0.0 | 0.0 | 0.00 | 0.00 | 0.41 | 89 | |
| 20260905233031 | 14 | 0 | 0.0 | 0.0 | 0.00 | 0.00 | 0.41 | 89 | |
| 20260905232022 | 14 | 0 | 0.0 | 0.0 | 0.00 | 0.00 | 0.41 | 89 | |
| 20260905230034 | 13 | 0 | 0.0 | 0.0 | 0.00 | 0.00 | 0.41 | 88 | |
| 20260905225020 | 13 | 0 | 0.0 | 0.0 | 0.00 | 0.00 | 0.41 | 88 | |
| 20260905224033 | 13 | 0 | 0.0 | 0.0 | 0.00 | 0.00 | 0.41 | 88 | |
| 20260905223025 | 13 | 0 | 0.0 | 0.0 | 0.00 | 0.00 | 0.41 | 88 | |
| 20260905222033 | 14 | 0 | 0.0 | 0.0 | 0.00 | 0.00 | 0.41 | 88 | |
| 20260905221028 | 14 | 0 | 0.0 | 0.0 | 0.00 | 0.00 | 0.41 | 87 | |
| 20260905215024 | 15 | 0 | 0.0 | 0.0 | 0.00 | 0.00 | 0.41 | 86 | |
| 20260905213031 | 15 | 0 | 0.0 | 0.0 | 0.00 | 0.00 | 0.41 | 86 | |
| 20260905211031 | 16 | 0 | 0.0 | 0.0 | 0.00 | 0.00 | 0.41 | 84 | |
| 20260905210034 | 16 | 0 | 0.0 | 0.0 | 0.00 | 0.00 | 0.41 | 83 | |
| 20260905205027 | 17 | 0 | 0.0 | 0.0 | 0.00 | 0.00 | 0.41 | 83 | |
| 20260905203033 | 17 | 0 | 0.0 | 0.0 | 0.00 | 0.00 | 0.41 | 80 | |
| 20260905202032 | 17 | 0 | 0.0 | 0.0 | 0.00 | 0.00 | 0.41 | 80 | |
| 20260905201024 | 18 | 0 | 0.0 | 0.0 | 0.00 | 0.00 | 0.41 | 79 | |
| 20260905200031 | 18 | 0 | 0.0 | 0.0 | 0.00 | 0.00 | 0.41 | 78 | |
| 20260905195025 | 18 | 0 | 0.0 | 0.0 | 0.00 | 0.00 | 0.41 | 78 | |
| 20260905194030 | 18 | 0 | 0.0 | 0.0 | 0.00 | 0.00 | 0.41 | 78 | |
| 20260905193027 | 18 | 0 | 0.0 | 0.0 | 0.00 | 0.00 | 0.41 | 79 | |
| 20260905192026 | 18 | 0 | 0.0 | 0.0 | 0.00 | 0.00 | 0.41 | 80 | |
| 20260905191024 | 18 | 0 | 0.0 | 0.0 | 0.00 | 0.00 | 0.41 | 81 | |
| 20260905185021 | 18 | 0 | 0.0 | 0.0 | 0.00 | 0.00 | 0.41 | 83 | |
| 20260905184031 | 18 | 0 | 0.0 | 0.0 | 0.00 | 0.00 | 0.41 | 83 | |
| 20260905183025 | 18 | 0 | 0.0 | 0.0 | 0.00 | 0.00 | 0.41 | 83 | |
| 20260905182025 | 18 | 0 | 0.0 | 0.0 | 0.00 | 0.00 | 0.41 | 82 | |
| 20260905181020 | 18 | 0 | 0.0 | 0.0 | 0.00 | 0.00 | 0.41 | 81 | |
| 20260905175022 | 20 | 0 | 0.0 | 0.0 | 0.00 | 0.00 | 0.41 | 80 | |
| 20260905174027 | 20 | 0 | 0.0 | 0.0 | 0.00 | 0.00 | 0.41 | 79 | |
| 20260905173036 | 20 | 0 | 0.0 | 0.0 | 0.00 | 0.00 | 0.41 | 78 | |
| 20260905172023 | 20 | 0 | 0.0 | 0.0 | 0.00 | 0.00 | 0.41 | 77 | |
| 20260905171020 | 21 | 0 | 0.0 | 0.0 | 0.00 | 0.00 | 0.41 | 75 | |
| 20260905170035 | 22 | 0 | 0.0 | 0.0 | 0.00 | 0.00 | 0.41 | 73 | |
| 20260905165029 | 22 | 0 | 0.0 | 0.0 | 0.00 | 0.00 | 0.41 | 72 | |
| 20260905163026 | 22 | 0 | 0.0 | 0.0 | 0.00 | 0.00 | 0.41 | 71 | |
| 20260905161032 | 22 | 0 | 0.0 | 0.0 | 0.00 | 0.00 | 0.41 | 71 | |
| 20260905160037 | 22 | 0 | 0.0 | 0.0 | 0.00 | 0.00 | 0.41 | 71 | |
| 20260905155020 | 22 | 0 | 0.0 | 0.0 | 0.00 | 0.00 | 0.41 | 72 | |
| 20260905154021 | 22 | 0 | 0.0 | 0.0 | 0.00 | 0.00 | 0.41 | 71 | |
| 20260905153030 | 22 | 0 | 0.0 | 0.0 | 0.00 | 0.00 | 0.41 | 71 | |
| 20260905152034 | 22 | 0 | 0.0 | 0.0 | 0.00 | 0.00 | 0.41 | 70 | |
| 20260905151021 | 22 | 0 | 0.0 | 0.0 | 0.00 | 0.00 | 0.41 | 69 | |
| 20260905144033 | 22 | 0 | 0.0 | 0.0 | 0.00 | 0.00 | 0.41 | 69 | |
| 20260905143032 | 22 | 0 | 0.0 | 0.0 | 0.00 | 0.00 | 0.41 | 70 | |
| 20260905142023 | 22 | 0 | 0.0 | 0.0 | 0.00 | 0.00 | 0.41 | 71 | |
| 20260905141021 | 21 | 0 | 0.0 | 0.0 | 0.00 | 0.00 | 0.41 | 72 | |
| 20260905140032 | 21 | 0 | 0.0 | 0.0 | 0.00 | 0.00 | 0.41 | 72 | |
| 20260905135024 | 21 | 0 | 0.0 | 0.0 | 0.00 | 0.00 | 0.41 | 74 | |
| 20260905134021 | 21 | 0 | 0.0 | 0.0 | 0.00 | 0.00 | 0.41 | 75 | |
| 20260905133034 | 20 | 0 | 0.0 | 0.0 | 0.00 | 0.00 | 0.41 | 78 | |
| 20260905132031 | 20 | 0 | 0.0 | 0.0 | 0.00 | 0.00 | 0.41 | 78 | |
| 20260905131018 | 18 | 0 | 0.0 | 0.0 | 0.00 | 0.00 | 0.41 | 81 | |
| 20260905130039 | 18 | 0 | 0.0 | 0.0 | 0.00 | 0.00 | 0.41 | 81 | |
| 20260905125025 | 18 | 0 | 0.0 | 0.0 | 0.00 | 0.00 | 0.41 | 83 | |
| 20260905124030 | 18 | 0 | 0.0 | 0.0 | 0.00 | 0.00 | 0.41 | 84 | |
| 20260905123029 | 18 | 0 | 0.0 | 0.0 | 0.00 | 0.00 | 0.41 | 84 | |
| 20260905122020 | 18 | 0 | 0.0 | 0.0 | 0.00 | 0.00 | 0.41 | 83 | |
| 20260905120027 | 18 | 0 | 0.0 | 0.0 | 0.00 | 0.00 | 0.41 | 83 | |
| 20260905115028 | 18 | 0 | 0.0 | 0.0 | 0.00 | 0.00 | 0.41 | 84 | |
| 20260905114019 | 18 | 0 | 0.0 | 0.0 | 0.03 | 0.00 | 0.41 | 84 | |
| 20260905113035 | 17 | 0 | 0.0 | 0.0 | 0.03 | 0.00 | 0.41 | 85 | |
| 20260905112025 | 17 | 0 | 0.0 | 0.0 | 0.03 | 0.00 | 0.41 | 85 | |
| 20260905111024 | 17 | 0 | 0.0 | 0.0 | 0.03 | 0.00 | 0.41 | 86 | |
| 20260905110029 | 17 | 0 | 0.0 | 0.0 | 0.03 | 0.00 | 0.41 | 84 | |
| 20260905105026 | 17 | 0 | 0.0 | 0.0 | 0.03 | 0.00 | 0.41 | 85 | |
| 20260905104022 | 16 | 0 | 0.0 | 0.0 | 0.05 | 0.00 | 0.38 | 86 | |
| 20260905103038 | 16 | 0 | 0.0 | 0.0 | 0.10 | 0.00 | 0.38 | 86 | |
| 20260905101028 | 15 | 0 | 0.0 | 0.0 | 0.20 | 0.00 | 0.38 | 86 | |
| 20260905100027 | 15 | 0 | 0.0 | 0.0 | 0.20 | 0.00 | 0.38 | 86 | |
| 20260905095022 | 16 | 0 | 0.0 | 0.0 | 0.20 | 0.00 | 0.38 | 86 | |
| 20260905094034 | 16 | 0 | 0.0 | 0.0 | 0.15 | 0.00 | 0.33 | 86 | |
| 20260905093032 | 16 | 0 | 0.0 | 0.0 | 0.10 | 0.00 | 0.28 | 83 | |
| 20260905092029 | 16 | 0 | 0.0 | 0.0 | 0.05 | 0.00 | 0.23 | 83 | |
| 20260905091035 | 16 | 0 | 0.0 | 0.0 | 0.00 | 0.00 | 0.18 | 82 | |
| 20260905090033 | 17 | 0 | 0.0 | 0.0 | 0.00 | 0.00 | 0.18 | 81 | |
| 20260905085034 | 17 | 0 | 0.0 | 0.0 | 0.00 | 0.00 | 0.18 | 81 | |
| 20260905084034 | 17 | 0 | 0.0 | 0.0 | 0.00 | 0.00 | 0.18 | 81 | |
| 20260905083030 | 17 | 0 | 0.0 | 0.0 | 0.00 | 0.00 | 0.18 | 81 | |
| 20260905081022 | 17 | 0 | 0.0 | 0.0 | 0.00 | 0.00 | 0.18 | 84 | |
| 20260905080047 | 16 | 0 | 0.0 | 0.0 | 0.00 | 0.00 | 0.18 | 84 | |
| 20260905075032 | 16 | 0 | 0.0 | 0.0 | 0.00 | 0.00 | 0.18 | 84 | |
| 20260905074025 | 16 | 0 | 0.0 | 0.0 | 0.00 | 0.00 | 0.18 | 83 | |
| 20260905073028 | 17 | 0 | 0.0 | 0.0 | 0.03 | 0.00 | 0.18 | 83 | |
| 20260905072021 | 17 | 0 | 0.0 | 0.0 | 0.03 | 0.00 | 0.18 | 84 | |
| 20260905071031 | 15 | 0 | 0.0 | 0.0 | 0.03 | 0.00 | 0.18 | 86 | |
| 20260905070039 | 15 | 0 | 0.0 | 0.0 | 0.05 | 0.00 | 0.18 | 86 | |
| 20260905065020 | 14 | 0 | 0.0 | 0.0 | 0.05 | 0.00 | 0.18 | 86 |